DAL8990 KGPI-KBOI

Flight info

Callsign DAL8990
Flight time 0h 59m
Altitude 38000
Route RIDDG2 SKOTT COLLR BEWTE4
Aircraft A320/M-FAA/L

Departure

Time 2026-04-20 05:44
Airport Glacier Park International Airport (KGPI)

Arrival

Time 2026-04-20 06:43
Airport Boise Air Terminal/Gowen Field (KBOI)
Time Latitude Longitude Altitude Speed Heading
2026-04-20 05:28 48.30812 -114.25327 2975 ft 0 kts 124°
2026-04-20 05:36 48.30823 -114.25351 2975 ft 4 kts 130°
2026-04-20 05:36 48.30841 -114.25380 2975 ft 4 kts 138°
2026-04-20 05:36 48.30862 -114.25406 2975 ft 4 kts 146°
2026-04-20 05:36 48.30886 -114.25426 2975 ft 4 kts 154°
2026-04-20 05:37 48.30911 -114.25441 2975 ft 4 kts 165°
2026-04-20 05:37 48.30937 -114.25448 2975 ft 4 kts 184°
2026-04-20 05:37 48.30956 -114.25441 2975 ft 0 kts 214°
2026-04-20 05:39 48.30943 -114.25454 2975 ft 8 kts 214°
2026-04-20 05:39 48.30898 -114.25500 2975 ft 7 kts 214°
2026-04-20 05:40 48.30834 -114.25565 2975 ft 14 kts 214°
2026-04-20 05:40 48.30751 -114.25653 2974 ft 15 kts 216°
2026-04-20 05:40 48.30659 -114.25752 2975 ft 17 kts 216°
2026-04-20 05:40 48.30559 -114.25855 2975 ft 18 kts 214°
2026-04-20 05:41 48.30451 -114.25966 2975 ft 19 kts 215°
2026-04-20 05:41 48.30337 -114.26086 2974 ft 21 kts 215°
2026-04-20 05:41 48.30214 -114.26216 2974 ft 22 kts 214°
2026-04-20 05:41 48.30083 -114.26352 2974 ft 23 kts 214°
2026-04-20 05:42 48.29946 -114.26496 2974 ft 24 kts 215°
2026-04-20 05:42 48.29849 -114.26638 2975 ft 14 kts 274°
2026-04-20 05:42 48.29897 -114.26746 2975 ft 9 kts 349°
2026-04-20 05:42 48.29906 -114.26739 2975 ft 0 kts 36°
2026-04-20 05:43 48.29988 -114.26651 2974 ft 50 kts 35°
2026-04-20 05:43 48.30476 -114.26145 2976 ft 117 kts 34°
2026-04-20 05:43 48.31301 -114.25282 2994 ft 167 kts 37°
2026-04-20 05:43 48.32227 -114.24330 3519 ft 171 kts 32°
2026-04-20 05:44 48.33092 -114.23507 4135 ft 169 kts 32°
2026-04-20 05:44 48.34086 -114.22571 4865 ft 171 kts 32°
2026-04-20 05:44 48.35151 -114.21577 5191 ft 191 kts 27°
2026-04-20 05:44 48.36506 -114.21245 5438 ft 211 kts 343°
2026-04-20 05:45 48.37769 -114.22480 5764 ft 230 kts 310°
2026-04-20 05:45 48.38747 -114.24511 6278 ft 246 kts 300°
2026-04-20 05:45 48.39618 -114.26764 7069 ft 250 kts 298°
2026-04-20 05:45 48.40474 -114.29056 7980 ft 252 kts 298°
2026-04-20 05:46 48.41355 -114.31349 8883 ft 253 kts 299°
2026-04-20 05:46 48.42263 -114.33626 9796 ft 255 kts 300°
2026-04-20 05:46 48.43073 -114.35976 10595 ft 256 kts 287°
2026-04-20 05:46 48.43305 -114.38597 11406 ft 257 kts 266°
2026-04-20 05:47 48.42862 -114.41320 11863 ft 276 kts 245°
2026-04-20 05:47 48.41718 -114.43757 12259 ft 297 kts 233°
2026-04-20 05:47 48.40356 -114.46260 12514 ft 319 kts 232°
2026-04-20 05:47 48.38909 -114.48873 13066 ft 329 kts 231°
2026-04-20 05:48 48.37196 -114.51180 13783 ft 337 kts 216°
2026-04-20 05:48 48.35056 -114.52686 14466 ft 346 kts 200°
2026-04-20 05:48 48.32645 -114.53224 15150 ft 354 kts 185°
2026-04-20 05:48 48.30173 -114.53333 15803 ft 357 kts 185°
2026-04-20 05:49 48.27678 -114.53416 16483 ft 360 kts 185°
2026-04-20 05:49 48.25164 -114.53479 17151 ft 363 kts 185°
2026-04-20 05:49 48.22665 -114.53527 17781 ft 366 kts 184°
2026-04-20 05:49 48.20102 -114.53574 18418 ft 369 kts 185°
2026-04-20 05:50 48.17527 -114.53623 18977 ft 372 kts 184°
2026-04-20 05:50 48.14929 -114.53681 19561 ft 374 kts 184°
2026-04-20 05:50 48.12316 -114.53742 20162 ft 377 kts 184°
2026-04-20 05:50 48.09684 -114.53805 20751 ft 380 kts 184°
2026-04-20 05:51 48.07036 -114.53869 21328 ft 382 kts 184°
2026-04-20 05:51 48.04367 -114.53936 21864 ft 385 kts 184°
2026-04-20 05:51 48.01643 -114.54004 22433 ft 387 kts 184°
2026-04-20 05:51 47.98975 -114.54064 22999 ft 390 kts 184°
2026-04-20 05:52 47.96250 -114.54121 23521 ft 393 kts 184°
2026-04-20 05:52 47.93504 -114.54179 23987 ft 395 kts 184°
2026-04-20 05:52 47.90745 -114.54240 24441 ft 397 kts 184°
2026-04-20 05:52 47.87970 -114.54008 24867 ft 404 kts 173°
2026-04-20 05:53 47.85247 -114.52771 25278 ft 413 kts 158°
2026-04-20 05:53 47.82788 -114.50497 25697 ft 422 kts 143°
2026-04-20 05:53 47.80770 -114.47275 26097 ft 431 kts 128°
2026-04-20 05:53 47.79272 -114.43373 26461 ft 436 kts 121°
2026-04-20 05:54 47.77504 -114.39755 26827 ft 431 kts 141°
2026-04-20 05:54 47.75021 -114.37388 27189 ft 422 kts 163°
2026-04-20 05:54 47.72184 -114.36531 27550 ft 415 kts 181°
2026-04-20 05:54 47.69311 -114.36741 27909 ft 413 kts 192°
2026-04-20 05:55 47.66533 -114.37752 28261 ft 411 kts 202°
2026-04-20 05:55 47.63856 -114.39267 28615 ft 413 kts 204°
2026-04-20 05:55 47.61187 -114.40847 28965 ft 414 kts 205°
2026-04-20 05:55 47.58995 -114.42192 29253 ft 416 kts 205°
2026-04-20 05:56 47.56325 -114.43871 29597 ft 418 kts 206°
2026-04-20 05:56 47.53648 -114.45575 29915 ft 420 kts 206°
2026-04-20 05:56 47.50953 -114.47291 30213 ft 422 kts 206°
2026-04-20 05:56 47.48238 -114.48966 30487 ft 424 kts 204°
2026-04-20 05:57 47.45529 -114.50554 30746 ft 425 kts 204°
2026-04-20 05:57 47.42786 -114.52218 31004 ft 426 kts 205°
2026-04-20 05:57 47.40142 -114.53868 31250 ft 428 kts 205°
2026-04-20 05:57 47.37402 -114.55604 31507 ft 429 kts 205°
2026-04-20 05:58 47.34661 -114.57339 31825 ft 429 kts 205°
2026-04-20 05:58 47.31924 -114.59059 32172 ft 427 kts 205°
2026-04-20 05:58 47.29188 -114.60768 32515 ft 426 kts 205°
2026-04-20 05:58 47.26459 -114.62471 32859 ft 425 kts 205°
2026-04-20 05:59 47.23730 -114.64140 33222 ft 424 kts 205°
2026-04-20 05:59 47.21015 -114.65806 33593 ft 422 kts 205°
2026-04-20 05:59 47.18308 -114.67474 33926 ft 421 kts 205°
2026-04-20 05:59 47.15608 -114.69125 34222 ft 420 kts 205°
2026-04-20 06:00 47.12909 -114.70783 34509 ft 420 kts 205°
2026-04-20 06:00 47.10218 -114.72438 34782 ft 419 kts 205°
2026-04-20 06:00 47.07521 -114.74098 35066 ft 419 kts 205°
2026-04-20 06:00 47.04838 -114.75751 35343 ft 418 kts 205°
2026-04-20 06:01 47.02158 -114.77404 35598 ft 417 kts 205°
2026-04-20 06:01 46.99521 -114.79027 35825 ft 417 kts 205°
2026-04-20 06:01 46.96851 -114.80670 36087 ft 416 kts 205°
2026-04-20 06:01 46.94185 -114.82305 36349 ft 415 kts 205°
2026-04-20 06:02 46.91518 -114.83939 36594 ft 414 kts 205°
2026-04-20 06:02 46.88859 -114.85566 36811 ft 414 kts 205°
2026-04-20 06:02 46.86201 -114.87186 37030 ft 413 kts 205°
2026-04-20 06:02 46.83549 -114.88800 37250 ft 413 kts 205°
2026-04-20 06:03 46.80897 -114.90413 37465 ft 412 kts 205°
2026-04-20 06:03 46.78253 -114.92022 37674 ft 412 kts 205°
2026-04-20 06:03 46.75601 -114.93635 37885 ft 411 kts 205°
2026-04-20 06:03 46.72961 -114.95238 37986 ft 411 kts 205°
2026-04-20 06:04 46.67695 -114.98424 38002 ft 409 kts 205°
2026-04-20 06:04 46.62444 -115.01596 38006 ft 408 kts 205°
2026-04-20 06:05 46.57185 -115.04772 38002 ft 410 kts 205°
2026-04-20 06:05 46.51937 -115.07935 38009 ft 410 kts 205°
2026-04-20 06:06 46.46653 -115.11103 37999 ft 411 kts 205°
2026-04-20 06:06 46.41362 -115.14274 38012 ft 411 kts 205°
2026-04-20 06:07 46.36085 -115.17431 38019 ft 411 kts 204°
2026-04-20 06:07 46.30802 -115.20588 38027 ft 411 kts 205°
2026-04-20 06:08 46.25519 -115.23749 38018 ft 411 kts 204°
2026-04-20 06:08 46.20229 -115.26901 37998 ft 411 kts 204°
2026-04-20 06:09 46.14937 -115.30031 38009 ft 411 kts 204°
2026-04-20 06:09 46.09649 -115.33150 38010 ft 411 kts 204°
2026-04-20 06:10 46.04363 -115.36278 38011 ft 410 kts 204°
2026-04-20 06:10 45.99080 -115.39399 38001 ft 411 kts 204°
2026-04-20 06:11 45.93792 -115.42515 37997 ft 411 kts 204°
2026-04-20 06:11 45.88485 -115.45634 37993 ft 412 kts 204°
2026-04-20 06:12 45.83177 -115.48744 37992 ft 412 kts 204°
2026-04-20 06:12 45.80548 -115.50281 37653 ft 414 kts 204°
2026-04-20 06:12 45.77884 -115.51836 37256 ft 413 kts 204°
2026-04-20 06:13 45.75223 -115.53388 36857 ft 413 kts 204°
2026-04-20 06:13 45.72567 -115.54941 36467 ft 413 kts 204°
2026-04-20 06:13 45.69895 -115.56497 36070 ft 414 kts 204°
2026-04-20 06:13 45.67231 -115.58046 35692 ft 413 kts 204°
2026-04-20 06:14 45.64567 -115.59597 35217 ft 413 kts 204°
2026-04-20 06:14 45.61914 -115.61144 34727 ft 410 kts 204°
2026-04-20 06:14 45.59281 -115.62674 34242 ft 407 kts 204°
2026-04-20 06:14 45.56664 -115.64192 33735 ft 404 kts 204°
2026-04-20 06:15 45.54074 -115.65692 33199 ft 400 kts 204°
2026-04-20 06:15 45.51497 -115.67186 32658 ft 397 kts 204°
2026-04-20 06:15 45.48952 -115.68662 32138 ft 394 kts 204°
2026-04-20 06:15 45.46419 -115.70126 31644 ft 391 kts 203°
2026-04-20 06:16 45.43904 -115.71574 31131 ft 389 kts 203°
2026-04-20 06:16 45.41406 -115.73012 30635 ft 385 kts 203°
2026-04-20 06:16 45.38930 -115.74436 30151 ft 382 kts 203°
2026-04-20 06:16 45.36471 -115.75851 29606 ft 380 kts 203°
2026-04-20 06:17 45.34029 -115.77257 29055 ft 377 kts 203°
2026-04-20 06:17 45.31602 -115.78653 28511 ft 375 kts 203°
2026-04-20 06:17 45.29191 -115.80034 27980 ft 373 kts 203°
2026-04-20 06:17 45.26791 -115.81407 27464 ft 371 kts 203°
2026-04-20 06:18 45.24414 -115.82769 27120 ft 367 kts 203°
2026-04-20 06:18 45.22052 -115.84121 26794 ft 365 kts 203°
2026-04-20 06:18 45.19700 -115.85465 26463 ft 363 kts 203°
2026-04-20 06:18 45.17355 -115.86803 26140 ft 362 kts 203°
2026-04-20 06:19 45.15045 -115.88120 25821 ft 360 kts 203°
2026-04-20 06:19 45.12725 -115.89444 25507 ft 359 kts 203°
2026-04-20 06:19 45.10414 -115.90760 25219 ft 358 kts 203°
2026-04-20 06:19 45.08111 -115.92072 24935 ft 356 kts 203°
2026-04-20 06:20 45.05813 -115.93382 24651 ft 355 kts 203°
2026-04-20 06:20 45.03524 -115.94682 24371 ft 354 kts 203°
2026-04-20 06:20 45.02013 -115.95539 24188 ft 353 kts 203°
2026-04-20 06:20 44.99734 -115.96833 23944 ft 352 kts 203°
2026-04-20 06:21 44.97467 -115.98124 23670 ft 351 kts 203°
2026-04-20 06:21 44.95203 -115.99411 23350 ft 350 kts 203°
2026-04-20 06:21 44.92944 -116.00690 23027 ft 348 kts 203°
2026-04-20 06:21 44.90705 -116.01956 22714 ft 346 kts 203°
2026-04-20 06:22 44.88476 -116.03216 22364 ft 344 kts 203°
2026-04-20 06:22 44.86260 -116.04466 22020 ft 342 kts 202°
2026-04-20 06:22 44.84054 -116.05705 21682 ft 340 kts 202°
2026-04-20 06:22 44.81866 -116.06932 21344 ft 338 kts 202°
2026-04-20 06:23 44.79688 -116.08156 21021 ft 336 kts 202°
2026-04-20 06:23 44.77525 -116.09373 20690 ft 334 kts 202°
2026-04-20 06:23 44.75372 -116.10582 20365 ft 332 kts 202°
2026-04-20 06:23 44.73232 -116.11786 20037 ft 330 kts 202°
2026-04-20 06:24 44.71107 -116.12981 19715 ft 328 kts 202°
2026-04-20 06:24 44.68993 -116.14168 19400 ft 326 kts 202°
2026-04-20 06:24 44.66894 -116.15347 19089 ft 324 kts 202°
2026-04-20 06:24 44.64805 -116.16520 18780 ft 322 kts 202°
2026-04-20 06:25 44.62726 -116.17684 18490 ft 320 kts 202°
2026-04-20 06:25 44.60661 -116.18835 18166 ft 318 kts 202°
2026-04-20 06:25 44.58608 -116.19976 17841 ft 317 kts 202°
2026-04-20 06:25 44.56564 -116.21114 17523 ft 315 kts 202°
2026-04-20 06:26 44.54533 -116.22247 17203 ft 314 kts 202°
2026-04-20 06:26 44.52512 -116.23375 16874 ft 312 kts 202°
2026-04-20 06:26 44.50496 -116.24498 16572 ft 311 kts 202°
2026-04-20 06:26 44.48497 -116.25611 16265 ft 309 kts 202°
2026-04-20 06:27 44.46499 -116.26722 15952 ft 308 kts 202°
2026-04-20 06:27 44.44538 -116.27812 15658 ft 307 kts 202°
2026-04-20 06:27 44.42562 -116.28911 15358 ft 305 kts 202°
2026-04-20 06:27 44.40591 -116.30007 15064 ft 304 kts 202°
2026-04-20 06:28 44.38629 -116.31090 14769 ft 302 kts 200°
2026-04-20 06:28 44.36620 -116.31875 14480 ft 298 kts 193°
2026-04-20 06:28 44.34613 -116.32527 14212 ft 294 kts 193°
2026-04-20 06:28 44.32637 -116.33173 13951 ft 290 kts 193°
2026-04-20 06:29 44.30685 -116.33812 13679 ft 286 kts 193°
2026-04-20 06:29 44.28728 -116.34453 13375 ft 285 kts 193°
2026-04-20 06:29 44.26831 -116.35075 13097 ft 283 kts 193°
2026-04-20 06:29 44.24914 -116.35702 12814 ft 282 kts 193°
2026-04-20 06:30 44.23002 -116.36326 12517 ft 280 kts 193°
2026-04-20 06:30 44.21110 -116.36943 12236 ft 279 kts 193°
2026-04-20 06:30 44.19222 -116.37548 11980 ft 278 kts 193°
2026-04-20 06:30 44.17333 -116.38132 11732 ft 277 kts 192°
2026-04-20 06:31 44.15451 -116.38704 11481 ft 277 kts 192°
2026-04-20 06:31 44.13571 -116.39271 11226 ft 276 kts 192°
2026-04-20 06:31 44.11697 -116.39837 10987 ft 275 kts 192°
2026-04-20 06:31 44.09826 -116.40404 10737 ft 275 kts 192°
2026-04-20 06:32 44.07961 -116.40968 10504 ft 274 kts 192°
2026-04-20 06:32 44.06101 -116.41530 10253 ft 273 kts 192°
2026-04-20 06:32 44.04246 -116.42094 10021 ft 273 kts 192°
2026-04-20 06:32 44.02400 -116.42655 9775 ft 271 kts 192°
2026-04-20 06:33 44.00525 -116.42929 9507 ft 272 kts 179°
2026-04-20 06:33 43.98665 -116.42601 9250 ft 266 kts 172°
2026-04-20 06:33 43.96845 -116.42307 8985 ft 261 kts 181°
2026-04-20 06:33 43.95058 -116.42537 8731 ft 255 kts 187°
2026-04-20 06:34 43.93314 -116.42875 8474 ft 251 kts 187°
2026-04-20 06:34 43.91589 -116.43229 8234 ft 250 kts 188°
2026-04-20 06:34 43.88191 -116.44286 7736 ft 250 kts 192°
2026-04-20 06:35 43.86497 -116.44862 7494 ft 250 kts 192°
2026-04-20 06:35 43.84810 -116.45446 7253 ft 250 kts 192°
2026-04-20 06:35 43.83126 -116.46038 7012 ft 250 kts 193°
2026-04-20 06:35 43.81441 -116.46640 6774 ft 250 kts 193°
2026-04-20 06:36 43.79790 -116.47236 6540 ft 250 kts 193°
2026-04-20 06:36 43.78110 -116.47868 6301 ft 250 kts 193°
2026-04-20 06:36 43.76441 -116.48509 6051 ft 248 kts 193°
2026-04-20 06:36 43.74797 -116.49137 5800 ft 241 kts 193°
2026-04-20 06:37 43.73187 -116.49747 5557 ft 239 kts 193°
2026-04-20 06:37 43.71582 -116.50341 5315 ft 238 kts 190°
2026-04-20 06:37 43.69959 -116.50245 5065 ft 235 kts 159°
2026-04-20 06:37 43.68504 -116.49223 4850 ft 235 kts 147°
2026-04-20 06:38 43.67171 -116.47920 4599 ft 233 kts 143°
2026-04-20 06:38 43.65908 -116.46611 4496 ft 221 kts 143°
2026-04-20 06:38 43.64756 -116.45330 4496 ft 204 kts 139°
2026-04-20 06:38 43.63840 -116.43944 4490 ft 188 kts 123°
2026-04-20 06:39 43.63215 -116.42433 4540 ft 176 kts 117°
2026-04-20 06:39 43.62685 -116.40953 4504 ft 169 kts 116°
2026-04-20 06:39 43.62183 -116.39499 4496 ft 167 kts 115°
2026-04-20 06:39 43.61685 -116.38039 4510 ft 168 kts 115°
2026-04-20 06:40 43.61203 -116.36621 4496 ft 159 kts 115°
2026-04-20 06:40 43.60750 -116.35287 4465 ft 152 kts 115°
2026-04-20 06:40 43.60310 -116.33990 4334 ft 148 kts 115°
2026-04-20 06:40 43.59875 -116.32711 4170 ft 146 kts 115°
2026-04-20 06:41 43.59446 -116.31448 3981 ft 144 kts 115°
2026-04-20 06:41 43.59023 -116.30203 3808 ft 143 kts 115°
2026-04-20 06:41 43.58604 -116.28970 3625 ft 142 kts 114°
2026-04-20 06:41 43.58185 -116.27738 3439 ft 141 kts 113°
2026-04-20 06:42 43.57771 -116.26523 3253 ft 139 kts 113°
2026-04-20 06:42 43.57358 -116.25309 3058 ft 140 kts 114°
2026-04-20 06:42 43.56954 -116.24090 2852 ft 139 kts 115°
2026-04-20 06:42 43.56632 -116.23165 2850 ft 98 kts 116°
2026-04-20 06:43 43.56399 -116.22495 2855 ft 66 kts 115°
2026-04-20 06:43 43.56226 -116.21990 2858 ft 45 kts 115°
2026-04-20 06:43 43.56171 -116.21722 2864 ft 14 kts 43°
2026-04-20 06:43 43.56226 -116.21695 2861 ft 7 kts 352°
2026-04-20 06:44 43.56288 -116.21706 2855 ft 10 kts 353°
2026-04-20 06:44 43.56360 -116.21716 2856 ft 14 kts 354°
2026-04-20 06:44 43.56414 -116.21719 2856 ft 0 kts 358°
2026-04-20 06:45 43.56415 -116.21719 2856 ft 2 kts 358°
2026-04-20 06:45 43.56468 -116.21723 2859 ft 9 kts 355°
2026-04-20 06:45 43.56525 -116.21731 2856 ft 8 kts 353°
2026-04-20 06:46 43.56555 -116.21765 2855 ft 6 kts 284°
2026-04-20 06:46 43.56572 -116.21815 2852 ft 6 kts 295°
2026-04-20 06:46 43.56588 -116.21862 2855 ft 5 kts 295°
2026-04-20 06:46 43.56600 -116.21895 2853 ft 3 kts 295°
2026-04-20 06:47 43.56610 -116.21925 2857 ft 7 kts 296°
2026-04-20 06:47 43.56638 -116.21936 2855 ft 3 kts 348°
2026-04-20 06:47 43.56660 -116.21934 2855 ft 4 kts 13°
2026-04-20 06:47 43.56676 -116.21926 2858 ft 1 kts 22°
2026-04-20 06:48 43.56681 -116.21923 2856 ft 2 kts 22°
2026-04-20 06:48 43.56682 -116.21922 2856 ft 0 kts 22°